FW2837 Weather Reports


time (UTC)temp
F
wind
direction
speed
knots
gust
knots
rain 1hr
in
rain 24hr
in
rain mn
in
humidity
%
barometer
mb
20260504045803 40 135 0.0 0.0 0.00 0.00 0.00 86 1013.2
20260504044502 40 270 0.0 0.0 0.00 0.00 0.00 86 1013.5
20260504043402 41 270 0.0 0.0 0.00 0.00 0.00 86 1013.2
20260504041103 41 90 0.0 0.0 0.00 0.00 0.00 86 1012.9
20260504034902 40 68 0.0 0.0 0.00 0.00 0.00 83 1012.2
20260504032603 41 113 0.0 0.0 0.00 0.00 0.00 78 1011.9
20260504030404 42 203 0.0 0.0 0.00 0.00 0.00 75 1011.9
20260504025304 43 90 0.0 0.0 0.00 0.00 0.00 73 1011.2
20260504024103 43 113 0.0 0.0 0.00 0.00 0.00 74 1011.5
20260504022902 44 90 0.0 0.0 0.00 0.00 0.00 73 1011.9
20260504021802 44 68 0.0 0.0 0.00 0.00 0.00 71 1011.5
20260504020704 45 158 0.0 0.0 0.00 0.00 0.00 70 1011.5
20260504015603 45 23 0.0 0.0 0.00 0.00 0.00 68 1011.5
20260504014402 46 90 0.0 0.0 0.00 0.00 0.00 69 1011.5
20260504013303 47 113 0.0 0.0 0.00 0.00 0.00 66 1011.9
20260504012203 48 68 0.0 0.0 0.00 0.00 0.00 65 1011.5
20260504011103 49 225 0.0 0.0 0.00 0.00 0.00 61 1011.9
20260504010004 49 113 0.0 0.0 0.00 0.00 0.00 61 1011.2
20260504003803 52 113 0.0 0.0 0.00 0.00 0.00 55 1011.2
20260504001702 55 113 0.0 0.0 0.00 0.00 0.00 50 1010.8
20260503235602 57 113 0.0 1.7 0.00 0.00 0.00 45 1010.8
20260503233402 61 180 4.3 4.3 0.00 0.00 0.00 40 1010.5
20260503232305 61 90 0.9 5.2 0.00 0.00 0.00 40 1010.2
20260503224003 64 158 5.2 10.4 0.00 0.00 0.00 35 1010.2
20260503222902 65 158 4.3 10.4 0.00 0.00 0.00 34 1010.5
20260503221803 65 90 1.7 7.0 0.00 0.00 0.00 35 1010.2
20260503215603 65 203 4.3 7.0 0.00 0.00 0.00 34 1011.2
20260503214602 66 90 5.2 10.4 0.00 0.00 0.00 35 1010.5
20260503213502 67 45 1.7 7.0 0.00 0.00 0.00 35 1010.5
20260503211302 68 135 2.6 5.2 0.00 0.00 0.00 32 1010.5
20260503210204 65 158 2.6 8.7 0.00 0.00 0.00 34 1010.5
20260503205103 66 180 6.1 7.8 0.00 0.00 0.00 32 1010.8
20260503204003 67 158 5.2 8.7 0.00 0.00 0.00 32 1010.8
20260503202903 66 225 7.8 7.8 0.00 0.00 0.00 32 1010.8
20260503201703 67 113 3.5 7.8 0.00 0.00 0.00 35 1011.2
20260503200604 68 135 4.3 6.1 0.00 0.00 0.00 34 1010.8
20260503195603 66 203 4.3 7.0 0.00 0.00 0.00 35 1011.2
20260503193402 64 180 3.5 10.4 0.00 0.00 0.00 35 1011.5
20260503192305 66 203 3.5 8.7 0.00 0.00 0.00 37 1011.2
20260503191302 65 225 5.2 12.2 0.00 0.00 0.00 35 1011.9
20260503190203 65 180 5.2 10.4 0.00 0.00 0.00 35 1011.9
20260503185203 64 180 2.6 16.5 0.00 0.00 0.00 39 1011.5
20260503184103 65 203 7.0 7.8 0.00 0.00 0.00 35 1012.2
20260503183002 67 225 7.0 7.0 0.00 0.00 0.00 35 1012.2
20260503181902 62 90 6.1 7.0 0.00 0.00 0.00 37 1012.2
20260503180807 63 158 3.5 10.4 0.00 0.00 0.00 40 1012.2
20260503175703 62 270 5.2 9.6 0.00 0.00 0.00 37 1012.5
20260503173503 64 338 6.1 8.7 0.00 0.00 0.00 37 1012.5
20260503170203 62 90 2.6 7.0 0.00 0.00 0.00 39 1012.5
20260503130502 50 293 7.8 8.7 0.00 0.00 0.00 55 1014.2
20260503090403 42 113 1.7 4.3 0.00 0.00 0.00 74 1011.9
20260503072603 43 180 2.6 5.2 0.00 0.00 0.00 74 1011.2
20260503071502 43 68 0.0 2.6 0.00 0.00 0.00 73 1011.2
20260503070403 44 158 0.9 6.1 0.00 0.00 0.00 71 1010.5